| time (UTC) | temp C | wind direction | speed KPH | gust KPH | rain 1hr cm | rain 24hr cm | rain mn cm | humidity % | barometer mb |
| 20260506124542 | -17 | 0.0 | 0.0 | 0.00 | 0.00 | 0.00 | 1009.1 | ||
| 20260506123050 | -17 | 0.0 | 0.0 | 0.00 | 0.00 | 0.00 | 1009.0 | ||
| 20260506121548 | -17 | 0.0 | 0.0 | 0.00 | 0.00 | 0.00 | 1009.0 | ||
| 20260506120108 | -17 | 0.0 | 0.0 | 0.00 | 0.00 | 0.00 | 1009.0 | ||
| 20260506114608 | -17 | 0.0 | 0.0 | 0.00 | 0.00 | 0.00 | 1009.1 | ||
| 20260506113051 | -17 | 0.0 | 0.0 | 0.00 | 0.00 | 0.00 | 1009.1 | ||
| 20260506111551 | -17 | 0.0 | 0.0 | 0.00 | 0.00 | 0.00 | 1009.2 | ||
| 20260506110047 | -17 | 0.0 | 0.0 | 0.00 | 0.00 | 0.00 | 1008.8 | ||
| 20260506104547 | -17 | 0.0 | 0.0 | 0.00 | 0.00 | 0.00 | 1008.7 | ||
| 20260506103042 | -17 | 311 | 1.6 | 9.7 | 0.00 | 0.00 | 0.00 | 1008.6 | |
| 20260506101541 | 17 | 262 | 0.0 | 4.8 | 0.00 | 0.00 | 0.00 | 77 | 1008.5 |
| 20260506100041 | 17 | 268 | 0.0 | 4.8 | 0.00 | 0.00 | 0.00 | 76 | 1008.8 |
| 20260506094546 | 17 | 278 | 1.6 | 4.8 | 0.00 | 0.03 | 0.00 | 76 | 1008.5 |
| 20260506093107 | 17 | 0 | 0.0 | 8.0 | 0.00 | 0.03 | 0.00 | 75 | 1008.6 |
| 20260506091549 | 17 | 310 | 0.0 | 3.2 | 0.00 | 0.03 | 0.00 | 75 | 1008.5 |
| 20260506090042 | 18 | 0 | 1.6 | 8.0 | 0.00 | 0.03 | 0.00 | 74 | 1008.7 |
| 20260506084551 | 17 | 244 | 0.0 | 3.2 | 0.00 | 0.03 | 0.00 | 73 | 1008.7 |
| 20260506083045 | 18 | 261 | 1.6 | 8.0 | 0.00 | 0.03 | 0.00 | 72 | 1008.8 |
| 20260506081549 | 17 | 0 | 0.0 | 4.8 | 0.00 | 0.03 | 0.00 | 71 | 1008.8 |
| 20260506073040 | 18 | 74 | 1.6 | 8.0 | 0.00 | 0.03 | 0.00 | 68 | 1008.9 |
| 20260506071544 | 18 | 127 | 0.0 | 8.0 | 0.00 | 0.03 | 0.00 | 67 | 1009.0 |
| 20260506061554 | 18 | 231 | 1.6 | 6.4 | 0.00 | 0.03 | 0.00 | 65 | 1009.5 |
| 20260506044547 | 19 | 332 | 1.6 | 8.0 | 0.00 | 0.03 | 0.00 | 64 | 1009.8 |
| 20260506043048 | 19 | 0 | 0.0 | 11.3 | 0.00 | 0.03 | 0.00 | 62 | 1009.9 |
| 20260506041559 | 20 | 0 | 1.6 | 4.8 | 0.00 | 0.03 | 0.00 | 60 | 1009.8 |
| 20260506040049 | 20 | 272 | 1.6 | 6.4 | 0.00 | 0.03 | 0.00 | 58 | 1009.8 |
| 20260506034540 | 20 | 0 | 1.6 | 8.0 | 0.00 | 0.03 | 0.03 | 56 | 1009.9 |
| 20260506033128 | 20 | 0 | 0.0 | 8.0 | 0.00 | 0.03 | 0.03 | 55 | 1009.7 |
| 20260506031544 | 21 | 327 | 0.0 | 14.5 | 0.00 | 0.03 | 0.03 | 53 | 1009.7 |
| 20260506030040 | 21 | 263 | 0.0 | 16.1 | 0.00 | 0.03 | 0.03 | 52 | 1009.6 |
| 20260506024545 | 21 | 271 | 1.6 | 4.8 | 0.00 | 0.03 | 0.03 | 52 | 1009.6 |
| 20260506023053 | 21 | 271 | 3.2 | 8.0 | 0.00 | 0.03 | 0.03 | 51 | 1009.7 |
| 20260506021547 | 21 | 271 | 1.6 | 8.0 | 0.00 | 0.03 | 0.03 | 51 | 1009.6 |
| 20260506020110 | 21 | 274 | 1.6 | 6.4 | 0.00 | 0.03 | 0.03 | 51 | 1009.5 |
| 20260506014540 | 22 | 291 | 1.6 | 14.5 | 0.00 | 0.03 | 0.03 | 50 | 1009.4 |
| 20260506013043 | 22 | 175 | 1.6 | 9.7 | 0.00 | 0.03 | 0.03 | 49 | 1009.2 |
| 20260506011549 | 22 | 262 | 1.6 | 6.4 | 0.00 | 0.03 | 0.03 | 47 | 1009.1 |
| 20260506010045 | 22 | 126 | 0.0 | 6.4 | 0.00 | 0.03 | 0.03 | 45 | 1008.9 |
| 20260506004551 | 23 | 2 | 0.0 | 11.3 | 0.00 | 0.03 | 0.03 | 44 | 1008.9 |
| 20260506003041 | 23 | 122 | 1.6 | 8.0 | 0.00 | 0.03 | 0.03 | 43 | 1008.6 |
| 20260506001554 | 23 | 0 | 1.6 | 11.3 | 0.00 | 0.03 | 0.03 | 41 | 1008.6 |
| 20260506000113 | 23 | 294 | 3.2 | 14.5 | 0.00 | 0.03 | 0.03 | 41 | 1008.4 |
| 20260505234548 | 24 | 209 | 3.2 | 9.7 | 0.00 | 0.03 | 0.03 | 41 | 1008.3 |
| 20260505233054 | 24 | 288 | 1.6 | 8.0 | 0.00 | 0.03 | 0.03 | 42 | 1008.2 |
| 20260505231556 | 24 | 302 | 3.2 | 11.3 | 0.00 | 0.03 | 0.03 | 41 | 1008.1 |
| 20260505230051 | 25 | 257 | 1.6 | 9.7 | 0.00 | 0.03 | 0.03 | 41 | 1007.9 |
| 20260505224551 | 25 | 259 | 1.6 | 16.1 | 0.00 | 0.03 | 0.03 | 40 | 1008.0 |
| 20260505223051 | 25 | 265 | 4.8 | 19.3 | 0.00 | 0.03 | 0.03 | 42 | 1007.8 |
| 20260505221548 | 25 | 262 | 3.2 | 12.9 | 0.00 | 0.03 | 0.03 | 40 | 1007.7 |
| 20260505220053 | 25 | 273 | 3.2 | 17.7 | 0.00 | 0.03 | 0.03 | 39 | 1007.6 |
| 20260505214554 | 26 | 228 | 8.0 | 24.1 | 0.00 | 0.03 | 0.03 | 38 | 1007.7 |
| 20260505213045 | 26 | 311 | 8.0 | 17.7 | 0.00 | 0.03 | 0.03 | 38 | 1007.5 |
| 20260505211623 | 27 | 236 | 6.4 | 27.4 | 0.00 | 0.03 | 0.03 | 37 | 1007.5 |
| 20260505210051 | 27 | 218 | 3.2 | 27.4 | 0.00 | 0.03 | 0.03 | 37 | 1007.3 |
| 20260505204559 | 27 | 257 | 4.8 | 19.3 | 0.00 | 0.03 | 0.03 | 36 | 1007.2 |
| 20260505203048 | 27 | 207 | 6.4 | 16.1 | 0.00 | 0.03 | 0.03 | 36 | 1007.5 |
| 20260505201543 | 27 | 141 | 6.4 | 32.2 | 0.00 | 0.03 | 0.03 | 34 | 1007.2 |
| 20260505200041 | 27 | 291 | 4.8 | 16.1 | 0.00 | 0.03 | 0.03 | 33 | 1007.4 |
| 20260505194548 | 27 | 75 | 6.4 | 20.9 | 0.00 | 0.03 | 0.03 | 35 | 1007.5 |
| 20260505193040 | 28 | 294 | 3.2 | 16.1 | 0.00 | 0.03 | 0.03 | 33 | 1007.7 |
| 20260505191547 | 28 | 224 | 4.8 | 11.3 | 0.00 | 0.03 | 0.03 | 35 | 1007.6 |
| 20260505190044 | 27 | 148 | 4.8 | 17.7 | 0.00 | 0.03 | 0.03 | 36 | 1007.9 |
| 20260505184548 | 27 | 235 | 8.0 | 20.9 | 0.00 | 0.03 | 0.03 | 35 | 1008.0 |
| 20260505183041 | 26 | 275 | 6.4 | 17.7 | 0.00 | 0.03 | 0.03 | 38 | 1008.1 |
| 20260505181643 | 27 | 253 | 4.8 | 19.3 | 0.00 | 0.03 | 0.03 | 38 | 1008.4 |
| 20260505174552 | 27 | 318 | 3.2 | 14.5 | 0.00 | 0.03 | 0.03 | 40 | 1008.9 |
| 20260505173049 | 26 | 273 | 8.0 | 19.3 | 0.00 | 0.03 | 0.03 | 41 | 1009.0 |
| 20260505171559 | 26 | 283 | 6.4 | 16.1 | 0.00 | 0.03 | 0.03 | 43 | 1009.0 |
| 20260505170049 | 26 | 2 | 6.4 | 20.9 | 0.00 | 0.03 | 0.03 | 40 | 1009.4 |
| 20260505164542 | 26 | 226 | 6.4 | 20.9 | 0.00 | 0.03 | 0.03 | 43 | 1009.7 |
| 20260505163043 | 26 | 165 | 6.4 | 17.7 | 0.00 | 0.03 | 0.03 | 45 | 1009.8 |
| 20260505161550 | 25 | 285 | 8.0 | 14.5 | 0.00 | 0.03 | 0.03 | 47 | 1009.9 |
| 20260505153045 | 23 | 249 | 4.8 | 27.4 | 0.00 | 0.03 | 0.03 | 54 | 1010.3 |
| 20260505151551 | 23 | 107 | 4.8 | 12.9 | 0.00 | 0.03 | 0.03 | 51 | 1010.6 |